{"data":{"norad_id":48978,"intl_designator":"2021-060M","name":"ONEWEB-0260","alt_names":[],"object_type":"PAYLOAD","status":"ACTIVE","operator":null,"country":"UK","launch_date":"2021-07-01","launch_site_code":"VOSTO","launch_vehicle":null,"mission":null,"orbit_class":"UNKNOWN","rcs_meters":null,"size_class":null,"mass_kg":null,"dimensions":null,"purposes":["comms"],"wikipedia_slug":null,"has_3d_model":false,"image_url":null,"decayed_at":null,"tle_current":{"epoch":"2026-05-25T05:08:27.362976Z","epoch_age_seconds":52546,"freshness":"FRESH","line1":"1 48978U 21060M   26145.21420559 -.00000191  00000+0 -53238-3 0  9997","line2":"2 48978  87.9100 233.3461 0002314  93.1849 266.9547 13.16594172236581","mean_motion":13.16594172,"eccentricity":0.0002314,"inclination_deg":87.91,"raan_deg":233.3461,"arg_perigee_deg":93.1849,"mean_anomaly_deg":266.9547,"bstar":-0.00053238,"rev_number":23658,"period_min":109.373110608,"perigee_km":1196.0039312929,"apogee_km":1199.510055033,"semimajor_km":7575.8939931629,"source":"CELESTRAK","updated_at":"2026-05-25T13:38:22.451896Z"}}}